Weather History for Jonesboro, AR

Change the Weather History Date:

Saturday, October 1, 2011

  Actual Average Record
Temperature  
Mean Temperature 58 °F 66 °F  
Max Temperature 70 °F 78 °F 95 °F (1953)
Min Temperature 46 °F 54 °F 35 °F (1924)
Degree Days  
Heating Degree Days 7 2  
Month to date heating degree days 7 2  
Since 1 July heating degree days 16 20  
Cooling Degree Days 0 4  
Month to date cooling degree days 0 4  
Year to date cooling degree days 2172 1775  
Growing Degree Days 8 (Base 50)    
Moisture  
Dew Point 39 °F    
Average Humidity 52    
Maximum Humidity 76    
Minimum Humidity 28    
Precipitation  
Precipitation 0.00 in 0.16 in 3.50 in (1898)
Month to date precipitation 0.00 0.16  
Year to date precipitation 37.27 34.33  
Snow  
Snow 0.00 in - 0.00 in (2002)
Month to date snowfall  
Since 1 July snowfall  
Since 1 September snowfall  
Snow Depth -    
Sea Level Pressure  
Sea Level Pressure 30.20 in    
Wind  
Wind Speed 7 mph (NNE)    
Max Wind Speed 18 mph    
Max Gust Speed 36 mph    
Visibility 10 miles    
Events      
T = Trace of Precipitation, MM = Missing Value Source: NWS Daily Summary

Daily Weather History Graph

Daily Weather History Graph

Search for Another Location

Airport:

Trip Planner

Search our weather history database for the weather conditions in past years. The results will help you decide how hot, cold, wet, or windy it might be!

Date:

Astronomy

Oct. 01, 2011 Rise Set
Actual Time 6:57 AM CDT 6:46 PM CDT
Civil Twilight 6:31 AM CDT 7:12 PM CDT
Nautical Twilight 6:02 AM CDT 7:41 PM CDT
Astronomical Twilight 5:32 AM CDT 8:11 PM CDT
Moon 11:52 AM CDT (10/1) 9:55 PM CDT (10/1)
Length of Visible Light 12h 40m
Length of Day
11h 49m
Waxing Crescent, 24% of the Moon is Illuminated
Oct 1
Waxing Crescent
Oct 3
First Quarter
Oct 11
Full
Oct 19
Last Quarter
Oct 26
New

Hourly Weather History & Observations

Time (CDT) Temp. Windchill Dew Point Humidity Pressure Visibility Wind Dir Wind Speed Gust Speed Precip Events Conditions
12:53 AM 57.0 °F - 42.1 °F 57% 30.09 in 10.0 mi NNW 4.6 mph - N/A   Clear
1:53 AM 55.9 °F - 42.1 °F 60% 30.09 in 10.0 mi NW 3.5 mph - N/A   Clear
2:53 AM 55.0 °F - 42.1 °F 62% 30.10 in 10.0 mi NNW 5.8 mph - N/A   Clear
3:53 AM 55.0 °F - 42.1 °F 62% 30.12 in 10.0 mi North 5.8 mph - N/A   Clear
4:53 AM 54.0 °F - 39.9 °F 59% 30.14 in 10.0 mi NNE 6.9 mph - N/A   Clear
5:53 AM 55.0 °F - 39.9 °F 57% 30.16 in 10.0 mi NNE 9.2 mph - N/A   Clear
6:53 AM 53.1 °F - 39.9 °F 61% 30.19 in 10.0 mi NNE 8.1 mph - N/A   Clear
7:53 AM 54.0 °F - 41.0 °F 62% 30.23 in 10.0 mi NNE 10.4 mph - N/A   Clear
8:53 AM 57.2 °F - 41.0 °F 55% 30.25 in 10.0 mi NE 12.7 mph - N/A   Clear
9:53 AM 59.0 °F - 39.2 °F 48% 30.27 in 10.0 mi ENE 16.1 mph - N/A   Clear
10:53 AM 62.1 °F - 37.9 °F 41% 30.27 in 10.0 mi NE 11.5 mph - N/A   Clear
11:53 AM 64.9 °F - 37.0 °F 36% 30.26 in 10.0 mi NE 10.4 mph 20.7 mph N/A   Clear
12:53 PM 66.9 °F - 36.0 °F 32% 30.25 in 10.0 mi NNE 9.2 mph - N/A   Clear
1:53 PM 68.0 °F - 35.1 °F 30% 30.23 in 10.0 mi North 6.9 mph - N/A   Clear
2:53 PM 69.8 °F - 35.6 °F 28% 30.22 in 10.0 mi NE 11.5 mph 20.7 mph N/A   Clear
3:53 PM 70.0 °F - 36.0 °F 29% 30.21 in 10.0 mi NNE 6.9 mph - N/A   Clear
4:53 PM 69.1 °F - 36.0 °F 30% 30.20 in 10.0 mi Variable 5.8 mph - N/A   Clear
5:53 PM 68.0 °F - 37.0 °F 32% 30.20 in 10.0 mi NNE 5.8 mph - N/A   Clear
6:53 PM 60.8 °F - 39.2 °F 45% 30.21 in 10.0 mi NNE 3.5 mph - N/A   Clear
7:53 PM 52.0 °F - 41.0 °F 66% 30.20 in 10.0 mi NNE 3.5 mph - N/A   Clear
8:53 PM 50.0 °F - 39.9 °F 68% 30.21 in 10.0 mi NNE 4.6 mph - N/A   Clear
9:53 PM 48.9 °F - 39.9 °F 71% 30.23 in 10.0 mi NNE 4.6 mph - N/A   Clear
10:53 PM 46.4 °F 45.2 °F 39.2 °F 76% 30.24 in 10.0 mi NNE 3.5 mph - N/A   Clear
11:53 PM 50.0 °F - 39.0 °F 66% 30.24 in 10.0 mi NE 3.5 mph - N/A   Clear